Погода в Жилине

Россия / Воронежская область     49°53′18″N   39°24′39″E
темп.,
°C
ветер,
м/с
пор.,
м/с
влажн.,
%
обл.,
%
осадки,
мм/ч
давл.,
гПа
погр.,
м
17 июня, чт
чт1700:00+18св358952 0.0 101373
03:00+18св3792100 0.0 1013124
06:00+18св41191100 0.0 1014341
09:00+23всв71074100 0.0 1015708
12:00+25св7966100 0.0 10161194
15:00+26св796623 0.0 10151313
18:00+24св8127693 0.0 1016965
21:00+21св8157525 0.1 1018683
18 июня, пт
пт1800:00+18всв5137666 0.1 1020472
03:00+15всв412865 0.1 1021297
06:00+16всв714855 0.0 1021424
09:00+20всв812705 0.0 1022788
12:00+23всв89615 0.0 10221193
15:00+24всв795831 0.0 10221450
18:00+22всв6970100 0.0 1022884
21:00+19всв51380100 0.0 1023405
19 июня, сб
сб1900:00+17всв5138270 0.0 1024398
03:00+15всв5138316 0.0 1024340
06:00+15всв6138132 0.0 1024372
09:00+19в711661 0.0 1024561
12:00+23в79590 0.0 1024929
15:00+24в78560 0.0 10231085
18:00+22в59650 0.0 1022766
21:00+17всв411814 0.0 1023205
20 июня, вс
вс2000:00+15всв411780 0.0 1023202
03:00+14всв411765 0.0 1023202
06:00+15всв513785 0.0 1022282
09:00+21в61064100 0.0 1022524
12:00+24в7954100 0.0 1021954
15:00+26в7957100 0.0 10191085
18:00+24всв6116631 0.0 1018611
21:00+20всв5147697 0.0 1018316
21 июня, пн
пн2100:00+20всв6156823 0.0 1018353
03:00+18в5146896 0.0 1018289
06:00+17в4107990 0.0 1018204
09:00+24в5106021 0.0 1018423
12:00+28в710484 0.0 1017972
15:00+29в6105172 0.0 10171556
18:00+27в4106298 0.0 1016369
21:00+22всв4147544 0.0 1017279